This demonstration page uses our WeatherBlox Daily Observations layout. Learn more.

Left ArrowRight Arrow

39.01783, -85.05884

Hourly Observations for October 20, 2016

Temp ( °F °C ) Dew Point ( °F °C ) Humidity (%) Winds ( mph kmh ) Pressure ( in mb ) Visibility ( mi km ) Precip ( " mm )
12:04 am 00:04 Cloudy with Thunderstorms 64 18 64 18 100 100 E 6 9 29.94 1014 10 16 0.00 0.00
12:15 am 00:15 Cloudy with Thunderstorms 66 19 64 18 94 94 NW 8 13 29.97 1015 10 16 0.00 0.00
12:52 am 00:52 Cloudy 65 18.3 64 17.8 97 97 Calm 29.95 1014 10 16 0.00 0.00
1:52 am 01:52 Cloudy 64 17.8 64 17.8 100 100 S 3 6 29.92 1013 8 13 0.00 0.00
2:41 am 02:41 Cloudy 64 18 64 18 100 100 NW 18 30 29.94 1014 9 14 0.00 0.00
2:52 am 02:52 Cloudy 66 18.9 65 18.3 96 96 NNW 6 9 29.96 1014 8 13 0.00 0.00
3:07 am 03:07 Cloudy with Mist and Fog 64 18 64 18 100 100 NNW 5 7 29.97 1015 6 10 0.00 0.00
3:31 am 03:31 Cloudy with Mist and Fog 64 18 64 18 100 100 VRB 3 6 29.97 1015 5 8 0.00 0.00
3:52 am 03:52 Cloudy 65 18.3 63 17.2 93 93 NW 10 17 29.98 1015 7 11 0.00 0.00
4:52 am 04:52 Cloudy with Mist and Fog 64 17.8 63 17.2 96 96 NW 6 9 29.97 1015 6 10 0.00 0.00
5:52 am 05:52 Cloudy 64 17.8 63 17.2 96 96 Calm 29.97 1015 8 13 0.00 0.00
6:52 am 06:52 Cloudy 65 18.3 62 16.7 90 90 N 6 9 29.96 1015 9 14 0.00 0.00
7:52 am 07:52 Cloudy with Light Rain 64 17.8 63 17.2 96 96 N 5 7 29.96 1015 5 8 0.02 0.51
7:57 am 07:57 Cloudy with Rain 63 17 63 17 100 100 NNE 3 6 29.97 1015 2 3 0.09 2.29
8:11 am 08:11 Cloudy with Rain 63 17 63 17 100 100 Calm 29.97 1015 3 5 0.30 7.62
8:25 am 08:25 Cloudy with Light Rain 63 17 63 17 100 100 ENE 6 9 29.97 1015 7 11 0.32 8.13
8:52 am 08:52 Cloudy with Light Rain 64 17.8 63 17.2 96 96 ENE 3 6 29.95 1014 7 11 0.34 8.64
9:17 am 09:17 Cloudy with Light Rain 64 18 63 17 94 94 Calm 29.94 1014 8 13 0.00 0.03
9:52 am 09:52 Cloudy with Light Rain 65 18.3 64 17.8 97 97 NNE 3 6 29.96 1014 10 16 0.06 1.52
10:52 am 10:52 Cloudy 66 18.9 64 17.8 93 93 NE 5 7 29.93 1014 10 16 0.00 0.03
11:20 am 11:20 Cloudy with Rain 64 18 64 18 100 100 SE 8 13 29.94 1014 3 5 0.00 0.00
11:52 am 11:52 Cloudy with Light Rain 65 18.3 63 17.2 93 93 Calm 29.94 1014 8 13 0.07 1.78
12:33 pm 12:33 Cloudy with Rain 64 18 64 18 100 100 S 5 7 29.94 1014 3 4 0.09 2.29
12:38 pm 12:38 Cloudy with Light Rain 64 18 64 18 100 100 SSE 3 6 29.94 1014 4 6 0.10 2.54
12:52 pm 12:52 Cloudy with Light Rain 64 17.8 63 17.2 96 96 W 5 7 29.95 1014 5 8 0.13 3.30
1:15 pm 13:15 Cloudy with Heavy Rain 64 18 63 17 94 94 Calm 29.94 1014 3 4 0.09 2.29
1:36 pm 13:36 Cloudy with Rain 64 18 63 17 94 94 NW 3 6 29.91 1013 3 5 0.00 0.00
1:52 pm 13:52 Cloudy with Light Rain 65 18.3 64 17.8 97 97 N 5 7 29.91 1013 5 8 0.20 5.08
2:03 pm 14:03 Cloudy with Light Rain 64 18 64 18 100 100 NNW 10 17 29.91 1013 6 10 0.00 0.00
2:17 pm 14:17 Cloudy 63 17 63 17 100 100 NNW 7 11 29.94 1014 7 11 0.00 0.03
2:52 pm 14:52 Cloudy with Light Rain 63 17.2 62 16.7 97 97 ENE 5 7 29.89 1012 8 13 0.01 0.25
3:52 pm 15:52 Cloudy with Light Rain 64 17.8 64 17.8 100 100 ESE 6 9 29.88 1012 6 10 0.02 0.51
4:43 pm 16:43 Cloudy with Light Rain 63 17 63 17 100 100 N 10 17 29.85 1011 1 2 0.00 0.03
4:52 pm 16:52 Cloudy with Light Rain 63 17.2 63 17.2 100 100 N 10 17 29.87 1011 1 2 0.00 0.03
5:11 pm 17:11 Cloudy with Mist and Fog 63 17 63 17 100 100 NNW 13 20 29.85 1011 3 4 0.01 0.25
5:52 pm 17:52 Cloudy with Mist and Fog 62 16.7 61 16.1 96 96 N 13 20 29.87 1011 3 4 0.01 0.25
6:22 pm 18:22 Cloudy 61 16 61 16 100 100 N 12 19 29.88 1012 7 11 0.00 0.00
6:52 pm 18:52 Cloudy 59 15 58 14.4 96 96 N 12 19 29.87 1012 10 16 0.00 0.00
7:38 pm 19:38 Cloudy with Mist and Fog 55 13 55 13 100 100 NNW 21 33 29.91 1013 2 3 0.00 0.00
7:52 pm 19:52 Cloudy with Light Rain 56 13.3 55 12.8 97 97 NNW 17 28 29.92 1013 3 4 0.02 0.51
8:37 pm 20:37 Cloudy with Light Rain 55 13 54 12 94 94 N 18 30 29.94 1014 4 6 0.01 0.25
8:52 pm 20:52 Cloudy with Light Rain 55 12.8 54 12.2 96 96 NNW 17 28 29.92 1013 4 6 0.02 0.51
9:36 pm 21:36 Cloudy with Light Rain 54 12 54 12 100 100 N 16 26 29.91 1013 7 11 0.00 0.00
9:52 pm 21:52 Cloudy with Heavy Rain 54 12.2 53 11.7 97 97 N 16 26 29.90 1013 3 5 0.06 1.52
10:07 pm 22:07 Cloudy with Heavy Rain 54 12 54 12 100 100 N 16 26 29.91 1013 2 3 0.10 2.54
10:19 pm 22:19 Cloudy with Light Rain 54 12 54 12 100 100 NNE 22 35 29.88 1012 6 10 0.12 3.05
10:52 pm 22:52 Cloudy with Heavy Rain 54 12.2 53 11.7 97 97 NNW 16 26 29.90 1013 3 5 0.17 4.32
10:57 pm 22:57 Cloudy with Heavy Rain 54 12 54 12 100 100 NNW 21 33 29.91 1013 2 3 0.06 1.52
11:05 pm 23:05 Cloudy with Heavy Rain 54 12 54 12 100 100 N 16 26 29.91 1013 2 3 0.16 4.06
11:15 pm 23:15 Cloudy with Rain 54 12 54 12 100 100 N 14 22 29.91 1013 3 5 0.21 5.33
11:36 pm 23:36 Cloudy with Light Rain 54 12 54 12 100 100 N 16 26 29.91 1013 6 10 0.00 0.00
11:52 pm 23:52 Cloudy with Light Rain 54 12.2 53 11.7 97 97 NNW 13 20 29.89 1012 8 13 0.27 6.86

Powered by AerisWeather